Location: Campo Alegre
(10.4289°N, 66.6519°W)
Time: 22:57:45
(UTC+00:00)

Cosmos 2278 Rocket - Pass Details

Date: 29 May 2024
Orbit: 840 x 845 km, 71.0° (Epoch: 21 June)

Event Time Altitude Azimuth Distance (km) Brightness Sun altitude
Rises 23:20:13 0° 338° (NNW) 3,388 6.1 -8.8°
Reaches altitude 10° 23:22:41 10° 334° (NNW) 2,453 5.4 -9.4°
Maximum altitude 23:28:13 61° 255° (WSW) 948 2.7 -10.6°
Drops below altitude 10° 23:33:46 10° 176° (S) 2,450 4.3 -11.9°
Sets 23:36:14 0° 172° (S) 3,384 5.0 -12.4°
